EST,Max TemperatureF,Mean TemperatureF,Min TemperatureF,Max Dew PointF,MeanDew PointF,Min DewpointF,Max Humidity, Mean Humidity, Min Humidity, Max Sea Level PressureIn, Mean Sea Level PressureIn, Min Sea Level PressureIn, Max VisibilityMiles, Mean VisibilityMiles, Min VisibilityMiles, Max Wind SpeedMPH, Mean Wind SpeedMPH, Max Gust SpeedMPH,PrecipitationIn, CloudCover, Events, WindDirDegrees
2013-1-1,35,32,28,34,29,20,100,87,69,30.19,30.11,30.06,10,6,2,13,4,,0.00,8,Snow,346
2013-1-2,32,26,21,21,18,14,89,71,50,30.29,30.24,30.18,10,9,6,6,2,,0.00,1,,329
2013-1-3,36,26,17,23,19,15,93,70,44,30.36,30.30,30.25,10,9,5,16,4,21,0.00,2,,251
2013-1-4,39,34,28,25,22,20,80,66,49,30.40,30.36,30.33,10,10,10,21,10,28,0.00,4,,247
2013-1-5,42,32,21,29,25,20,96,77,55,30.42,30.33,30.21,10,9,4,12,4,,0.00,4,,214
2013-1-6,41,34,28,33,26,21,88,73,69,30.40,30.22,30.06,10,9,7,17,7,25,0.00,8,Rain,253
2013-1-7,41,31,21,26,22,19,96,80,51,30.53,30.41,30.30,10,7,2,8,2,,0.00,1,,191
2013-1-8,52,36,19,32,26,19,100,81,47,30.38,30.30,30.26,10,8,4,8,1,,0.00,0,,204
2013-1-9,55,42,28,46,36,28,100,84,53,30.55,30.38,30.26,10,10,6,14,3,,0.01,4,Rain,243
2013-1-10,44,34,24,41,31,24,100,95,73,30.56,30.45,30.13,10,5,0,6,1,,0.05,3,Fog-Rain,33
2013-1-11,61,51,41,56,48,41,100,90,63,30.12,29.98,29.93,10,7,1,17,5,25,0.31,4,Fog-Rain,215
2013-1-12,64,52,39,63,49,39,100,97,84,30.05,29.97,29.83,10,6,0,16,1,23,0.00,5,Fog-Rain,172
2013-1-13,66,52,37,60,50,33,100,92,75,30.17,29.93,29.77,10,8,3,21,11,34,0.38,8,Rain,223
2013-1-14,36,30,25,32,23,19,87,78,69,30.45,30.36,30.18,10,10,8,13,8,16,0.00,5,,347
2013-1-15,33,28,24,27,23,19,82,76,66,30.42,30.30,30.11,10,9,2,12,8,16,0.00,5,Snow,36
2013-1-16,37,34,30,29,28,26,93,84,67,30.14,30.07,30.01,10,7,2,12,3,,0.00,5,Snow,226
2013-1-17,44,36,28,29,26,19,92,72,49,30.43,30.23,30.14,10,9,6,13,5,20,0.00,1,,344
2013-1-18,39,29,19,23,19,16,89,65,43,30.58,30.46,30.29,10,10,10,14,5,21,0.00,0,,199
2013-1-19,54,45,36,28,25,23,60,46,32,30.27,30.11,29.96,10,10,10,24,14,34,0.00,0,,210
2013-1-20,45,36,28,34,16,6,65,45,30,30.27,30.17,29.97,10,10,10,17,10,31,0.00,3,,291
2013-1-21,28,22,15,16,9,0,69,55,42,30.31,30.19,30.13,10,9,2,18,10,29,0.00,6,Snow,285
2013-1-22,19,14,8,-1,-2,-4,64,49,35,30.46,30.38,30.31,10,10,10,15,8,20,0.00,2,,282
2013-1-23,23,19,15,10,3,-1,63,50,42,30.41,30.30,30.12,10,10,7,12,7,,0.00,7,Snow,232
2013-1-24,25,20,16,10,4,-2,62,49,31,30.64,30.49,30.16,10,10,10,14,7,25,0.00,0,,34
2013-1-25,27,24,19,21,15,4,93,72,46,30.48,30.20,30.10,10,7,1,9,4,,0.00,7,Snow,176
2013-1-26,35,28,19,20,17,15,92,70,46,30.49,30.35,30.19,10,9,7,10,5,,0.00,1,,332
2013-1-27,39,28,16,36,23,14,100,79,50,30.49,30.38,30.20,10,7,3,7,2,,0.08,4,Rain,75
2013-1-28,52,44,35,51,45,36,100,94,77,30.20,30.12,30.07,10,7,3,15,6,25,0.12,7,Rain,224
2013-1-29,64,52,41,58,49,41,100,92,68,30.08,29.98,29.61,10,5,0,24,4,31,0.00,5,Fog,208
2013-1-30,68,50,33,59,48,24,100,83,67,29.60,29.45,29.31,10,8,1,36,19,56,0.43,7,Rain,230
2013-1-31,33,26,19,25,18,11,86,70,49,30.09,29.92,29.66,10,7,1,24,18,37,0.00,8,Snow,272